Punkttermin-Prognose für Emden
Modell: MOSMIX (Deutscher Wetterdienst)
Modelllaufzeit: 19 UTC
Aktualisierung: stündlich
Montag - 31.08.2026
| Wetter - | Temperaturen | Wind | Niederschlag | Druck | Sonne
Zeit GZ | Bewölkung | TT MAX MIN TG TM | DD FF FX1 | RR1 RR24 | PPPP | SS1 SS24
02:00 Uhr | --- | --- --- --- --- --- | --- --- --- | --- | --- | ---
03:00 Uhr | --- | --- --- --- --- --- | --- --- --- | --- | --- | ---
04:00 Uhr | --- | --- --- --- --- --- | --- --- --- | --- | --- | ---
05:00 Uhr | --- | --- --- --- --- --- | --- --- --- | --- | --- | ---
06:00 Uhr | --- | --- --- --- --- --- | --- --- --- | --- | --- | ---
07:00 Uhr | --- | --- --- --- --- --- | --- --- --- | --- | --- | ---
08:00 Uhr | --- | --- --- --- --- --- | --- --- --- | --- | --- | ---
09:00 Uhr | --- | --- --- --- --- --- | --- --- --- | --- | --- | ---
10:00 Uhr | --- | --- --- --- --- --- | --- --- --- | --- | --- | ---
11:00 Uhr | --- | --- --- --- --- --- | --- --- --- | --- | --- | ---
12:00 Uhr | --- | --- --- --- --- --- | --- --- --- | --- | --- | ---
13:00 Uhr | --- | --- --- --- --- --- | --- --- --- | --- | --- | ---
14:00 Uhr | --- | --- --- --- --- --- | --- --- --- | --- | --- | ---
15:00 Uhr | --- | --- --- --- --- --- | --- --- --- | --- | --- | ---
16:00 Uhr | --- | --- --- --- --- --- | --- --- --- | --- | --- | ---
17:00 Uhr | --- | --- --- --- --- --- | --- --- --- | --- | --- | ---
18:00 Uhr | --- | --- --- --- --- --- | --- --- --- | --- | --- | ---
19:00 Uhr | --- | --- --- --- --- --- | --- --- --- | --- | --- | ---
20:00 Uhr | --- | --- --- --- --- --- | --- --- --- | --- | --- | ---
21:00 Uhr | --- | --- --- --- --- --- | --- --- --- | --- | --- | ---
22:00 Uhr | leichter Regen | 17 --- --- 15 --- | W 28 --- | 0.3 | 1011 | 0.0
23:00 Uhr | leichter Regen | 17 --- --- 15 --- | W 28 --- | 0.2 | 1012 | 0.0
00:00 Uhr | leichter Regen | 17 --- --- 15 --- | W 28 --- | 0.1 | 1012 | 0.0
Dienstag - 01.09.2026
| Wetter - | Temperaturen | Wind | Niederschlag | Druck | Sonne
Zeit GZ | Bewölkung | TT MAX MIN TG TM | DD FF FX1 | RR1 RR24 | PPPP | SS1 SS24
01:00 Uhr | wolkig | 16 --- --- 15 --- | W 28 --- | 0.0 | 1013 | 0.0
02:00 Uhr | wolkig | 16 --- --- 15 --- | W 28 --- | 0.0 | 1013 | 0.0
03:00 Uhr | wolkig | 16 --- --- 15 --- | W 24 --- | 0.0 | 1014 | 0.0
04:00 Uhr | wolkig | 16 --- --- 15 --- | W 24 --- | 0.0 | 1014 | 0.0
05:00 Uhr | wolkig | 16 --- --- 15 --- | W 22 --- | 0.0 | 1014 | 0.0
06:00 Uhr | wolkig | 16 --- --- 15 --- | W 22 --- | 0.0 | 1014 | 0.0
07:00 Uhr | wolkig | 16 --- --- 15 --- | SW 20 --- | 0.0 | 1015 | 0.0
08:00 Uhr | stark bewölkt | 16 --- 15 16 --- | SW 20 --- | 0.0 | 1015 | 0.1
09:00 Uhr | stark bewölkt | 16 --- --- 16 --- | SW 20 --- | 0.0 | 1016 | 0.2
10:00 Uhr | stark bewölkt | 17 --- --- 17 --- | SW 20 --- | 0.0 | 1016 | 0.2
11:00 Uhr | leichter Regen | 18 --- --- 18 --- | W 22 --- | 0.3 | 1016 | 0.3
12:00 Uhr | leichter Regen | 18 --- --- 18 --- | W 22 --- | 0.4 | 1017 | 0.4
13:00 Uhr | wolkig | 19 --- --- 19 --- | W 26 --- | 0.0 | 1017 | 0.5
14:00 Uhr | wolkig | 19 --- --- 20 --- | W 26 --- | 0.0 | 1018 | 0.5
15:00 Uhr | wolkig | 19 --- --- 21 --- | W 28 --- | 0.0 | 1018 | 0.6
16:00 Uhr | wolkig | 19 --- --- 21 --- | W 28 --- | 0.0 | 1018 | 0.6
17:00 Uhr | wolkig | 19 --- --- 20 --- | W 26 --- | 0.0 | 1018 | 0.6
18:00 Uhr | wolkig | 19 --- --- 19 --- | W 24 --- | 0.0 | 1018 | 0.6
19:00 Uhr | wolkig | 18 --- --- 18 --- | W 22 --- | 0.0 | 1019 | 0.6
20:00 Uhr | wolkig | 18 20 --- 17 --- | W 22 --- | 0.0 | 1019 | 0.4
21:00 Uhr | wolkig | 17 --- --- 16 --- | W 20 --- | 0.0 | 1020 | 0.3
22:00 Uhr | wolkig | 17 --- --- 15 --- | W 18 --- | 0.0 | 1020 | 0.0
23:00 Uhr | wolkig | 16 --- --- 14 | W 17 --- | 0.0 | 1020 | 0.0
00:00 Uhr | wolkig | 16 --- --- 14 17 | W 17 --- | 0.0 0.7 | 1019 | 0.0 5.8
Mittwoch - 02.09.2026
| Wetter - | Temperaturen | Wind | Niederschlag | Druck | Sonne
Zeit GZ | Bewölkung | TT MAX MIN TG TM | DD FF FX1 | RR1 RR24 | PPPP | SS1 SS24
01:00 Uhr | wolkig | 16 --- --- 14 --- | W 15 --- | 0.0 | 1019 | 0.0
02:00 Uhr | wolkig | 15 --- --- 14 --- | SW 17 --- | 0.0 | 1019 | 0.0
03:00 Uhr | wolkig | 15 --- --- 14 --- | SW 17 --- | 0.0 | 1020 | 0.0
04:00 Uhr | wolkig | 14 --- --- 14 --- | SW 17 --- | 0.0 | 1020 | 0.0
05:00 Uhr | wolkig | 14 --- --- 14 --- | SW 17 --- | 0.0 | 1020 | 0.0
06:00 Uhr | wolkig | 14 --- --- 13 --- | SW 17 --- | 0.0 | 1019 | 0.0
07:00 Uhr | wolkig | 14 --- --- 14 --- | SW 15 --- | 0.0 | 1019 | 0.1
08:00 Uhr | wolkig | 15 --- 13 15 --- | SW 17 --- | 0.0 | 1019 | 0.2
09:00 Uhr | wolkig | 15 --- --- 16 --- | SW 17 --- | 0.0 | 1019 | 0.3
10:00 Uhr | wolkig | 17 --- --- 17 --- | SW 17 --- | 0.0 | 1019 | 0.4
11:00 Uhr | wolkig | 18 --- --- 19 --- | SW 17 --- | 0.0 | 1019 | 0.4
12:00 Uhr | wolkig | 18 --- --- 20 --- | SW 18 --- | 0.0 | 1019 | 0.4
13:00 Uhr | wolkig | 19 --- --- 21 --- | SW 18 --- | 0.0 | 1019 | 0.4
14:00 Uhr | wolkig | 20 --- --- 22 --- | W 20 --- | 0.0 | 1019 | 0.5
15:00 Uhr | wolkig | 20 --- --- 22 --- | W 20 --- | 0.0 | 1019 | 0.6
16:00 Uhr | wolkig | 20 --- --- 21 --- | W 20 --- | 0.0 | 1019 | 0.6
17:00 Uhr | wolkig | 20 --- --- 21 --- | W 20 --- | 0.0 | 1019 | 0.5
18:00 Uhr | wolkig | 19 --- --- 20 --- | W 20 --- | 0.0 | 1019 | 0.5
19:00 Uhr | wolkig | 19 --- --- 19 --- | W 18 --- | 0.0 | 1019 | 0.4
20:00 Uhr | wolkig | 18 21 --- 18 --- | W 17 --- | 0.0 | 1019 | 0.3
21:00 Uhr | wolkig | 17 --- --- 16 --- | W 17 --- | 0.0 | 1019 | 0.1
22:00 Uhr | wolkig | 17 --- --- 16 --- | SW 17 --- | 0.0 | 1019 | 0.0
23:00 Uhr | wolkig | 17 --- --- 16 | SW 15 --- | 0.0 | 1019 | 0.0
00:00 Uhr | wolkig | 16 --- --- 15 17 | SW 17 --- | 0.0 0.0 | 1018 | 0.0 5.6
Donnerstag - 03.09.2026
| Wetter - | Temperaturen | Wind | Niederschlag | Druck | Sonne
Zeit GZ | Bewölkung | TT MAX MIN TG TM | DD FF FX3 | RR3 RR24 | PPPP | SS3 SS24
02:00 Uhr | leichter Regen | 16 --- --- 16 --- | S 18 --- | 0.6 | 1018 | 0.0
05:00 Uhr | leichter Regen | 16 --- --- 16 --- | SW 22 --- | 0.5 | 1016 | 0.0
08:00 Uhr | leichter Regen | 16 --- 15 16 --- | SW 24 43 | 0.3 | 1015 | 0.1
11:00 Uhr | stark bewölkt | 18 --- --- 19 --- | SW 24 44 | 0.7 | 1016 | 0.5
14:00 Uhr | stark bewölkt | 20 --- --- 20 --- | W 28 43 | 0.0 | 1016 | 0.9
17:00 Uhr | wolkig | 20 --- --- 20 --- | W 28 46 | 0.0 | 1015 | 1.2
20:00 Uhr | stark bewölkt | 19 21 --- 18 --- | W 30 48 | 0.0 | 1016 | 0.7
23:00 Uhr | bedeckt | 18 --- --- 17 18 | W 26 43 | 0.0 2.1 | 1016 | 0.0 3.5
Freitag - 04.09.2026
| Wetter - | Temperaturen | Wind | Niederschlag | Druck | Sonne
Zeit GZ | Bewölkung | TT MAX MIN TG TM | DD FF FX3 | RR3 RR24 | PPPP | SS3 SS24
02:00 Uhr | bedeckt | 18 --- --- 17 --- | SW 24 43 | 0.0 | 1015 | 0.0
05:00 Uhr | stark bewölkt | 18 --- --- 17 --- | SW 28 46 | 0.0 | 1013 | 0.0
08:00 Uhr | leichter Regen | 18 --- 17 17 --- | SW 30 46 | 0.8 | 1012 | 0.0
11:00 Uhr | leichter Regen | 19 --- --- 19 --- | SW 28 48 | 1.2 | 1011 | 0.5
14:00 Uhr | leichter Regen | 19 --- --- 19 --- | W 32 48 | 1.3 | 1011 | 0.9
17:00 Uhr | leichter Regen | 19 --- --- 19 --- | W 35 52 | 0.9 | 1011 | 1.1
20:00 Uhr | leichter Regen | 18 20 --- 17 --- | W 32 52 | 1.2 | 1012 | 0.7
23:00 Uhr | leichter Regen | 18 --- --- 16 18 | W 32 52 | 1.2 6.6 | 1013 | 0.1 3.2
Samstag - 05.09.2026
| Wetter - | Temperaturen | Wind | Niederschlag | Druck | Sonne
Zeit GZ | Bewölkung | TT MAX MIN TG TM | DD FF FX3 | RR3 RR24 | PPPP | SS3 SS24
02:00 Uhr | wolkig | 17 --- --- 15 --- | W 30 48 | 0.8 | 1014 | 0.0
05:00 Uhr | wolkig | 16 --- --- 15 --- | W 32 48 | 0.0 | 1014 | 0.0
08:00 Uhr | stark bewölkt | 16 --- 15 16 --- | W 32 48 | 0.0 | 1017 | 0.2
11:00 Uhr | wolkig | 17 --- --- 18 --- | W 30 46 | 0.0 | 1019 | 0.8
14:00 Uhr | wolkig | 18 --- --- 20 --- | W 30 44 | 0.0 | 1020 | 1.3
17:00 Uhr | wolkig | 18 --- --- 19 --- | W 30 43 | 0.0 | 1022 | 1.6
20:00 Uhr | wolkig | 17 19 --- 16 --- | W 28 43 | 0.0 | 1022 | 1.2
23:00 Uhr | wolkig | 16 --- --- 14 17 | W 26 --- | 0.0 0.8 | 1023 | 0.2 5.2
Sonntag - 06.09.2026
| Wetter - | Temperaturen | Wind | Niederschlag | Druck | Sonne
Zeit GZ | Bewölkung | TT MAX MIN TG TM | DD FF FX3 | RR3 RR24 | PPPP | SS3 SS24
02:00 Uhr | wolkig | 16 --- --- 14 --- | W 26 --- | 0.0 | 1022 | 0.0
05:00 Uhr | wolkig | 15 --- --- 14 --- | W 26 --- | 0.0 | 1022 | 0.0
08:00 Uhr | wolkig | 15 --- 14 15 --- | SW 22 --- | 0.0 | 1021 | 0.3
11:00 Uhr | wolkig | 18 --- --- 19 --- | SW 22 --- | 0.0 | 1021 | 1.4
14:00 Uhr | wolkig | 19 --- --- 22 --- | W 22 --- | 0.0 | 1021 | 1.8
17:00 Uhr | wolkig | 19 --- --- 21 --- | W 24 --- | 0.0 | 1019 | 1.8
20:00 Uhr | wolkig | 18 20 --- 19 --- | W 20 --- | 0.0 | 1018 | 1.3
23:00 Uhr | wolkig | 18 --- --- 17 17 | SW 22 --- | 0.0 0.0 | 1016 | 0.2 6.7
Montag - 07.09.2026
| Wetter - | Temperaturen | Wind | Niederschlag | Druck | Sonne
Zeit GZ | Bewölkung | TT MAX MIN TG TM | DD FF FX3 | RR3 RR24 | PPPP | SS3 SS24
02:00 Uhr | wolkig | 17 --- --- 17 --- | SW 22 --- | 0.0 | 1015 | 0.0
05:00 Uhr | wolkig | 16 --- --- 16 --- | SW 22 --- | 0.0 | 1014 | 0.0
08:00 Uhr | wolkig | 16 --- 16 16 --- | SW 22 --- | 0.0 | 1014 | 0.3
11:00 Uhr | wolkig | 18 --- --- 20 --- | SW 22 --- | 0.0 | 1015 | 1.2
14:00 Uhr | wolkig | 19 --- --- 22 --- | W 24 --- | 0.0 | 1016 | 1.7
17:00 Uhr | wolkig | 19 --- --- 22 --- | W 24 --- | 0.0 | 1015 | 1.7
20:00 Uhr | wolkig | 18 20 --- 18 --- | W 22 --- | 0.0 | 1016 | 1.2
23:00 Uhr | wolkig | 17 --- --- 16 18 | W 24 --- | 0.0 0.0 | 1017 | 0.1 6.2
Dienstag - 08.09.2026
| Wetter - | Temperaturen | Wind | Niederschlag | Druck | Sonne
Zeit GZ | Bewölkung | TT MAX MIN TG TM | DD FF FX3 | RR3 RR24 | PPPP | SS3 SS24
02:00 Uhr | wolkig | 17 --- --- 16 --- | W 24 41 | 0.0 | 1016 | 0.0
05:00 Uhr | stark bewölkt | 16 --- --- 15 --- | W 24 41 | 0.0 | 1016 | 0.0
08:00 Uhr | stark bewölkt | 16 --- 16 16 --- | SW 24 41 | 0.0 | 1016 | 0.3
11:00 Uhr | wolkig | 18 --- --- 20 --- | SW 22 --- | 0.0 | 1016 | 1.3
14:00 Uhr | wolkig | 19 --- --- 23 --- | SW 24 --- | 0.0 | 1017 | 1.8
17:00 Uhr | wolkig | 20 --- --- 23 --- | W 24 --- | 0.0 | 1017 | 1.9
20:00 Uhr | wolkig | 19 21 --- 19 --- | W 18 --- | 0.0 | 1016 | 1.2
23:00 Uhr | wolkig | 18 --- --- 17 18 | W 24 --- | 0.0 0.0 | 1015 | 0.1 6.5
Mittwoch - 09.09.2026
| Wetter - | Temperaturen | Wind | Niederschlag | Druck | Sonne
Zeit GZ | Bewölkung | TT MAX MIN TG TM | DD FF FX3 | RR3 RR24 | PPPP | SS3 SS24
02:00 Uhr | wolkig | 17 --- --- 16 --- | SW 22 --- | 0.0 | 1015 | 0.0
05:00 Uhr | stark bewölkt | 16 --- --- 15 --- | SW 22 --- | 0.0 | 1014 | 0.0
08:00 Uhr | wolkig | 16 --- 16 16 --- | SW 24 41 | 0.0 | 1014 | 0.2
11:00 Uhr | wolkig | 18 --- --- 19 --- | SW 22 --- | 0.0 | 1014 | 1.4
14:00 Uhr | wolkig | 19 --- --- 22 --- | W 24 --- | 0.0 | 1014 | 1.9
17:00 Uhr | wolkig | 19 --- --- 21 --- | W 24 41 | 0.0 | 1013 | 1.8
20:00 Uhr | wolkig | 18 20 --- 18 --- | W 18 --- | 0.0 | 1012 | 0.9
23:00 Uhr | wolkig | 17 --- --- 16 17 | SW 22 --- | 0.0 0.0 | 1013 | 0.0 6.2
Donnerstag - 10.09.2026
| Wetter - | Temperaturen | Wind | Niederschlag | Druck | Sonne
Zeit GZ | Bewölkung | TT MAX MIN TG TM | DD FF FX3 | RR3 RR24 | PPPP | SS3 SS24
02:00 Uhr | leichter Regen | 17 --- --- 15 --- | SW 24 --- | 1.1 | 1011 | 0.0
05:00 Uhr | leichter Regen | 16 --- --- 14 --- | SW 22 --- | 0.5 | 1011 | 0.0
08:00 Uhr | leichter Regen | 16 --- 15 15 --- | SW 22 --- | 2.6 | 1010 | 0.2
11:00 Uhr | wolkig | 18 --- --- 18 --- | SW 22 --- | 0.0 | 1011 | 1.3
14:00 Uhr | wolkig | 19 --- --- 20 --- | W 26 41 | 0.0 | 1011 | 1.7
17:00 Uhr | wolkig | 18 --- --- 20 --- | NW 24 --- | 0.0 | 1012 | 1.7
20:00 Uhr | wolkig | 17 19 --- 16 --- | W 18 --- | 0.0 | 1017 | 1.5
---:00 Uhr | --- | --- --- --- --- --- | --- --- --- | --- --- | --- | ---


Wetter : Wetter/Bewölkung zum Termin (aktuelle Stunde) TT : Lufttemperatur in Grad Celsius zum Termin MAX : Maximum Lufttemperatur in Grad Celsius letzte 12 Stunden MIN : Minimum Lufttemperatur der vergangenen Nacht in Grad Celsius letzte 12 Stunden TG : Temperatur in 5cm überm Erdboden TM : Tagesmittel Lufttemperatur in Grad Celsius letzte 24 Stunden DD : Windrichtung zum Termin FF : Windgeschwindigkeit zum Termin FX1 : höchste Windspitze im Bezugszeitraum letzte 1 Stunde in km/h FX3 : höchste Windspitze im Bezugszeitraum letzte 3 Stunden in km/h PPPP : reduzierter Luftdruck auf Meereshöhe in hPa zum Termin RR1 : Niederschlagsmenge im Bezugszeitraum letzte 1 Stunde in mm = l/qm RR3 : Niederschlagsmenge im Bezugszeitraum letzte 3 Stunden in mm = l/qm RR24 : Niederschlagsmenge im Bezugszeitraum letzte 24 Stunden in mm = l/qm SS1 : Sonnenscheindauer letzte 1 Stunde SS3 : Sonnenscheindauer letzte 3 Stunden SS24 : Sonnenscheindauer letzte 24 Stunden --- : Wert nicht vorhanden